| time (UTC) | temp F | wind direction | speed MPH | gust MPH | rain 1hr in | rain 24hr in | rain mn in | humidity % | barometer mb |
| 20260904210039 | 92 | 124 | 4.0 | 14.0 | 0.00 | 0.00 | 0.00 | 22 | 1000.6 |
| 20260904204545 | 91 | 104 | 4.0 | 17.0 | 0.00 | 0.00 | 0.00 | 24 | 1000.9 |
| 20260904203042 | 92 | 135 | 6.0 | 14.0 | 0.00 | 0.00 | 0.00 | 21 | 1000.9 |
| 20260904201633 | 91 | 119 | 4.0 | 13.0 | 0.00 | 0.00 | 0.00 | 22 | 1001.1 |
| 20260904200037 | 91 | 108 | 6.0 | 14.0 | 0.00 | 0.00 | 0.00 | 23 | 1001.2 |
| 20260904194547 | 91 | 108 | 7.0 | 13.0 | 0.00 | 0.00 | 0.00 | 23 | 1001.2 |
| 20260904193029 | 91 | 132 | 4.0 | 12.0 | 0.00 | 0.00 | 0.00 | 24 | 1001.3 |
| 20260904191538 | 90 | 111 | 7.0 | 12.0 | 0.00 | 0.00 | 0.00 | 24 | 1001.5 |
| 20260904190025 | 89 | 107 | 6.0 | 13.0 | 0.00 | 0.00 | 0.00 | 25 | 1001.7 |
| 20260904184521 | 89 | 141 | 4.0 | 12.0 | 0.00 | 0.00 | 0.00 | 27 | 1001.9 |
| 20260904183019 | 88 | 102 | 7.0 | 14.0 | 0.00 | 0.00 | 0.00 | 28 | 1002.1 |
| 20260904181519 | 88 | 126 | 8.0 | 12.0 | 0.00 | 0.00 | 0.00 | 27 | 1002.3 |
| 20260904180018 | 88 | 118 | 4.0 | 12.0 | 0.00 | 0.00 | 0.00 | 28 | 1002.4 |
| 20260904174532 | 87 | 102 | 6.0 | 12.0 | 0.00 | 0.00 | 0.00 | 29 | 1002.7 |
| 20260904173011 | 85 | 164 | 7.0 | 10.0 | 0.00 | 0.00 | 0.00 | 32 | 1002.9 |
| 20260904171509 | 85 | 120 | 2.0 | 7.0 | 0.00 | 0.00 | 0.00 | 30 | 1003.0 |
| 20260904170006 | 84 | 167 | 2.0 | 11.0 | 0.00 | 0.00 | 0.00 | 33 | 1003.1 |
| 20260904164503 | 83 | 140 | 2.0 | 9.0 | 0.00 | 0.00 | 0.00 | 33 | 1003.2 |
| 20260904163001 | 83 | 115 | 3.0 | 7.0 | 0.00 | 0.00 | 0.00 | 32 | 1003.3 |
| 20260904161558 | 81 | 119 | 3.0 | 9.0 | 0.00 | 0.00 | 0.00 | 33 | 1003.5 |
| 20260904160057 | 81 | 161 | 4.0 | 9.0 | 0.00 | 0.00 | 0.00 | 35 | 1003.4 |
| 20260904154554 | 81 | 154 | 4.0 | 7.0 | 0.00 | 0.00 | 0.00 | 33 | 1003.4 |
| 20260904153053 | 80 | 161 | 1.0 | 6.0 | 0.00 | 0.00 | 0.00 | 35 | 1003.4 |
| 20260904151549 | 79 | 184 | 3.0 | 6.0 | 0.00 | 0.00 | 0.00 | 34 | 1003.4 |
| 20260904150010 | 78 | 144 | 1.0 | 5.0 | 0.00 | 0.00 | 0.00 | 37 | 1003.2 |
| 20260904144503 | 77 | 146 | 3.0 | 5.0 | 0.00 | 0.00 | 0.00 | 36 | 1003.4 |
| 20260904143103 | 75 | 177 | 1.0 | 4.0 | 0.00 | 0.00 | 0.00 | 39 | 1003.4 |
| 20260904141557 | 72 | 175 | 2.0 | 5.0 | 0.00 | 0.00 | 0.00 | 44 | 1003.4 |
| 20260904140052 | 69 | 206 | 3.0 | 5.0 | 0.00 | 0.00 | 0.00 | 48 | 1003.4 |
| 20260904134549 | 65 | 196 | 3.0 | 4.0 | 0.00 | 0.00 | 0.00 | 53 | 1003.2 |
| 20260904133054 | 62 | 188 | 2.0 | 4.0 | 0.00 | 0.00 | 0.00 | 54 | 1003.0 |
| 20260904131545 | 60 | 188 | 1.0 | 4.0 | 0.00 | 0.00 | 0.00 | 56 | 1002.8 |
| 20260904130044 | 58 | 198 | 4.0 | 7.0 | 0.00 | 0.00 | 0.00 | 57 | 1002.7 |
| 20260904124545 | 58 | 187 | 2.0 | 5.0 | 0.00 | 0.00 | 0.00 | 58 | 1002.4 |
| 20260904123056 | 58 | 187 | 3.0 | 6.0 | 0.00 | 0.00 | 0.00 | 56 | 1002.1 |
| 20260904121534 | 59 | 227 | 3.0 | 4.0 | 0.00 | 0.00 | 0.00 | 57 | 1001.9 |
| 20260904120040 | 58 | 317 | 1.0 | 3.0 | 0.00 | 0.00 | 0.00 | 56 | 1001.6 |
| 20260904114537 | 58 | 31 | 3.0 | 5.0 | 0.00 | 0.00 | 0.00 | 55 | 1001.4 |
| 20260904113039 | 59 | 360 | 1.0 | 4.0 | 0.00 | 0.00 | 0.00 | 55 | 1001.5 |
| 20260904111528 | 60 | 355 | 2.0 | 4.0 | 0.00 | 0.00 | 0.00 | 52 | 1001.5 |
| 20260904110036 | 61 | 19 | 3.0 | 5.0 | 0.00 | 0.00 | 0.00 | 51 | 1001.7 |
| 20260904104523 | 63 | 57 | 1.0 | 3.0 | 0.00 | 0.00 | 0.00 | 49 | 1001.4 |
| 20260904103020 | 64 | 134 | 2.0 | 6.0 | 0.00 | 0.00 | 0.00 | 48 | 1001.4 |
| 20260904101523 | 64 | 355 | 6.0 | 10.0 | 0.00 | 0.00 | 0.00 | 46 | 1001.1 |
| 20260904100018 | 63 | 36 | 7.0 | 9.0 | 0.00 | 0.00 | 0.00 | 48 | 1001.2 |
| 20260904094520 | 62 | 5 | 6.0 | 8.0 | 0.00 | 0.00 | 0.00 | 50 | 1001.0 |
| 20260904093013 | 62 | 341 | 5.0 | 6.0 | 0.00 | 0.00 | 0.00 | 50 | 1001.2 |
| 20260904091518 | 64 | 40 | 3.0 | 8.0 | 0.00 | 0.00 | 0.00 | 48 | 1001.1 |
| 20260904090010 | 63 | 340 | 6.0 | 8.0 | 0.00 | 0.00 | 0.00 | 49 | 1001.0 |
| 20260904084507 | 63 | 16 | 3.0 | 5.0 | 0.00 | 0.00 | 0.00 | 51 | 1001.1 |
| 20260904083013 | 65 | 9 | 2.0 | 6.0 | 0.00 | 0.00 | 0.00 | 49 | 1001.1 |
| 20260904081511 | 65 | 161 | 2.0 | 8.0 | 0.00 | 0.00 | 0.00 | 51 | 1001.2 |
| 20260904080008 | 65 | 95 | 2.0 | 5.0 | 0.00 | 0.00 | 0.00 | 51 | 1001.1 |
| 20260904074512 | 66 | 5 | 5.0 | 6.0 | 0.00 | 0.00 | 0.00 | 47 | 1000.9 |
| 20260904073001 | 67 | 15 | 2.0 | 5.0 | 0.00 | 0.00 | 0.00 | 47 | 1000.9 |
| 20260904071558 | 68 | 338 | 4.0 | 7.0 | 0.00 | 0.00 | 0.00 | 46 | 1000.9 |
| 20260904070056 | 69 | 345 | 5.0 | 7.0 | 0.00 | 0.00 | 0.00 | 46 | 1000.7 |
| 20260904064552 | 69 | 15 | 7.0 | 9.0 | 0.00 | 0.00 | 0.00 | 45 | 1000.6 |
| 20260904063050 | 70 | 15 | 8.0 | 12.0 | 0.00 | 0.00 | 0.00 | 44 | 1000.5 |
| 20260904061552 | 70 | 9 | 8.0 | 10.0 | 0.00 | 0.00 | 0.00 | 43 | 1000.5 |
| 20260904060044 | 70 | 18 | 10.0 | 13.0 | 0.00 | 0.00 | 0.00 | 42 | 1000.5 |
| 20260904054544 | 72 | 10 | 8.0 | 11.0 | 0.00 | 0.00 | 0.00 | 41 | 1000.6 |
| 20260904053044 | 72 | 18 | 7.0 | 11.0 | 0.00 | 0.00 | 0.00 | 40 | 1000.6 |
| 20260904051548 | 73 | 24 | 5.0 | 8.0 | 0.00 | 0.00 | 0.00 | 39 | 1000.5 |
| 20260904050042 | 73 | 36 | 5.0 | 8.0 | 0.00 | 0.00 | 0.00 | 38 | 1000.6 |
| 20260904044541 | 73 | 51 | 6.0 | 8.0 | 0.00 | 0.00 | 0.00 | 37 | 1000.6 |
| 20260904043040 | 73 | 351 | 6.0 | 8.0 | 0.00 | 0.00 | 0.00 | 37 | 1000.9 |
| 20260904041549 | 74 | 360 | 5.0 | 7.0 | 0.00 | 0.00 | 0.00 | 36 | 1000.9 |
| 20260904040039 | 74 | 333 | 4.0 | 6.0 | 0.00 | 0.00 | 0.00 | 36 | 1001.1 |
| 20260904034550 | 75 | 320 | 1.0 | 4.0 | 0.00 | 0.00 | 0.00 | 35 | 1001.1 |
| 20260904033038 | 76 | 355 | 3.0 | 6.0 | 0.00 | 0.00 | 0.00 | 34 | 1001.0 |
| 20260904031543 | 76 | 309 | 4.0 | 8.0 | 0.00 | 0.00 | 0.00 | 34 | 1000.8 |
| 20260904030036 | 75 | 304 | 4.0 | 6.0 | 0.00 | 0.00 | 0.00 | 34 | 1000.7 |
| 20260904024535 | 76 | 343 | 2.0 | 4.0 | 0.00 | 0.00 | 0.00 | 34 | 1000.5 |
| 20260904023034 | 77 | 343 | 2.0 | 5.0 | 0.00 | 0.00 | 0.00 | 33 | 1000.4 |
| 20260904021533 | 78 | 94 | 1.0 | 3.0 | 0.00 | 0.00 | 0.00 | 31 | 1000.3 |
| 20260904020033 | 80 | 94 | 0.0 | 2.0 | 0.00 | 0.00 | 0.00 | 30 | 1000.0 |
| 20260904014532 | 82 | 97 | 2.0 | 5.0 | 0.00 | 0.00 | 0.00 | 30 | 1000.0 |
| 20260904013034 | 83 | 75 | 4.0 | 8.0 | 0.00 | 0.00 | 0.00 | 28 | 1000.0 |
| 20260904011555 | 84 | 109 | 3.0 | 9.0 | 0.00 | 0.00 | 0.00 | 27 | 999.9 |
| 20260904010031 | 85 | 100 | 6.0 | 11.0 | 0.00 | 0.00 | 0.00 | 26 | 999.9 |
| 20260904004529 | 87 | 145 | 7.0 | 12.0 | 0.00 | 0.00 | 0.00 | 26 | 999.8 |
| 20260904003029 | 88 | 117 | 4.0 | 9.0 | 0.00 | 0.00 | 0.00 | 24 | 999.8 |
| 20260904001528 | 88 | 117 | 3.0 | 9.0 | 0.00 | 0.00 | 0.00 | 23 | 999.8 |
| 20260904000001 | 88 | 91 | 2.0 | 5.0 | 0.00 | 0.00 | 0.00 | 22 | 999.6 |
| 20260903234559 | 89 | 119 | 2.0 | 11.0 | 0.00 | 0.00 | 0.00 | 23 | 999.8 |
| 20260903233056 | 88 | 116 | 4.0 | 9.0 | 0.00 | 0.00 | 0.00 | 23 | 999.8 |
| 20260903231547 | 88 | 115 | 3.0 | 9.0 | 0.00 | 0.00 | 0.00 | 23 | 999.9 |
| 20260903230046 | 88 | 115 | 4.0 | 9.0 | 0.00 | 0.00 | 0.00 | 23 | 999.9 |
| 20260903224543 | 88 | 116 | 7.0 | 14.0 | 0.00 | 0.00 | 0.00 | 23 | 1000.0 |
| 20260903223037 | 88 | 155 | 5.0 | 13.0 | 0.00 | 0.00 | 0.00 | 23 | 1000.2 |
| 20260903221535 | 88 | 159 | 8.0 | 14.0 | 0.00 | 0.00 | 0.00 | 24 | 1000.2 |
| 20260903220037 | 89 | 130 | 5.0 | 10.0 | 0.00 | 0.00 | 0.00 | 24 | 1000.3 |
| 20260903214535 | 88 | 126 | 6.0 | 12.0 | 0.00 | 0.00 | 0.00 | 25 | 1000.3 |
| 20260903213033 | 89 | 123 | 4.0 | 12.0 | 0.00 | 0.00 | 0.00 | 25 | 1000.5 |
| 20260903211526 | 88 | 78 | 6.0 | 14.0 | 0.00 | 0.00 | 0.00 | 24 | 1000.8 |